Preview of NWS' New Version of Forecast
This preview is not operational and should not be used for support decisions.

Regional Weather Roundup (RWR)

Issued by Pendleton, OR (PDT)

                            
000
ASUS46 KPDT 200925
RWRPDT
PENDLETON REGIONAL WEATHER ROUNDUP
NATIONAL WEATHER SERVICE PENDLETON OREGON
100 AM PST WED FEB 20 2019

NOTE: FAIR INDICATES FEW OR NO CLOUDS BELOW 12,000 FEET WITH NO
SIGNIFICANT WEATHER AND/OR OBSTRUCTIONS TO VISIBILITY.

# INDICATES UNOFFICIAL STATION AND DATA

WAZ520-201010-
EAST SLOPES OF WASHINGTON CASCADES

CITY            SKY/WX      TMP DP  RH  WIND    PRES   REMARKS
#BULLFROG       N/A         29  29  100 SW5     N/A                          
#EASTON DOT     N/A         N/A N/A N/A CALM    N/A                          
#ELK HTS DOT    N/A         27  27  100 CALM    N/A                          
#GLENWOOD       N/A         33  31  92  CALM    29.83F                       
#NELSON 3SW     N/A         28  26  92  CALM    29.98S                       
#TEANAWAY 4NE   N/A         28  27  96  W1      N/A                          
#TROUT LAKE 1NE N/A         31  30  96  SW12    29.80F WCI 22                
#TROUT LAKE 1E  N/A         31  29  92  SW12    29.77F WCI 22                
$$

WAZ521-201010-
SIMCOE HIGHLANDS

CITY            SKY/WX      TMP DP  RH  WIND    PRES   REMARKS
#BICKLETON HS   N/A         29  25  85  N14     29.33F WCI 18                
#SATUS PASS DOT N/A         29  28  96  CALM    N/A                          
#CENTERVILLE 1SWN/A         32  28  85  SW12    29.77F WCI 23                
#GOODNOE HILLS  N/A         34  30  85  W9      29.66F                       
#LYLE 6NE       N/A         35  32  89  CALM    29.81F                       
#PITT 4SE       N/A         30  29  96  CALM    29.83F                       
$$

WAZ026-201010-
KITTITAS VALLEY

CITY            SKY/WX      TMP DP  RH  WIND    PRES   REMARKS
ELLENSBURG AP   PTCLDY      23  19  84  E6      29.73F                       
#ELLENSBURG CWU N/A         24  20  84  CALM    29.76F                       
#ELLENSBURG 3NE N/A         23  20  88  CALM    27.83F                       
#ELLENSBURG 1E  N/A         22  19  88  CALM    29.85F                       
#KITTITAS 3S    N/A         18  16  92  SW5     29.82F                       
#MANASTASH RDG  N/A         28  28  100 CALM    N/A                          
#ROCKY CYN DOT  N/A         27  26  96  CALM    N/A                          
#RYEGRASS DOT   N/A         13  11  91  CALM    N/A                          
#THORP 6N       N/A         22  21  96  W8      29.88F                       
$$

WAZ027-201010-
YAKIMA VALLEY

CITY            SKY/WX      TMP DP  RH  WIND    PRES   REMARKS
SUNNYSIDE AP    MOCLDY      22  21  96  CALM    29.81S FOG                   
YAKIMA AIRPORT  PTCLDY      17  14  88  SW5     29.78S FOG                   
YAKIMA-VAGABOND MOCLDY      20  18  92  CALM    29.75S FOG                   
#DONALD 2NE     N/A         19  10  67  NW1     28.63F                       
#GRANDVIEW      N/A         21  18  88  CALM    29.87S                       
#MABTON         N/A         22  21  96  SE3     29.80R                       
#MOXEE 2E       N/A         20  N/A N/A N1      29.88F                       
#NACHES 2SW     N/A         21  20  96  W9      29.73F                       
#OUTLOOK DOT    N/A         21  21  100 SW5     29.77                        
#PARKER DOT     N/A         20  19  96  SW5     29.79S                       
#TERRACE HTS    N/A         19  17  92  NW5     29.82F                       
#TOPPENISH      N/A         20  18  92  W1      29.78S                       
#I82 S UMTANUM RN/A         21  18  88  CALM    N/A                          
#UNION GAP DOT  N/A         20  18  92  SW5     29.83R                       
#W YAKIMA       N/A         22  20  92  CALM    29.85F                       
#WHITE SWAN 5E  N/A         14  12  92  CALM    29.88F                       
#ZILLAH DOT     N/A         20  N/A N/A SW5     N/A                          
$$

WAZ028-201010-
LOWER COLUMBIA BASIN...WASHINGTON

CITY            SKY/WX      TMP DP  RH  WIND    PRES   REMARKS
HANFORD         CLOUDY      23  18  81  W8      29.80F                       
PASCO           LGT SNOW    25  23  92  NW9     29.83F FOG                   
PROSSER AWOS    N/A         23  23  100 CALM    29.84R                       
RICHLAND AWOS   LGT SNOW    27  23  85  W3      29.83F                       
#BASIN CITY 5SW N/A         24  21  88  SW5     29.77F                       
#BENTON CITY    N/A         23  21  92  N14     29.76F WCI 11                
#CONNELL 5N     N/A         24  23  96  CALM    29.84F                       
#CONNELL 5NW    N/A         23   2  39  W5      29.79F                       
#ELTOPIA 6NW    N/A         24  23  96  W8      28.76F                       
#KAHLOTUS       N/A         26  25  96  W8      29.83F                       
#KENNEWICK 3S   N/A         24  21  88  CALM    29.85F                       
#PROSSER DOT    N/A         23  22  96  SW5     29.82S                       
#SAGEMOOR 2W    N/A         24  21  88  MISG    29.71F                       
#TOUCHET 2S     N/A         26  23  88  W5      29.81S                       
$$

WAZ029-201010-
FOOTHILLS OF THE BLUES...WASHINGTON

CITY            SKY/WX      TMP DP  RH  WIND    PRES   REMARKS
WALLA WALLA AP  LGT RAIN    36  32  85  S12     29.76F WCI 28                
#CLYDE 6NW      N/A         30  28  92  W8      29.80F                       
#DAYTON SCHOOL  N/A         34  27  75  CALM    29.76F                       
#DELANEY DOT    N/A         34  32  92  CALM    29.79F                       
#LOWDEN 2SE     N/A         28  26  92  W8      29.76F                       
#PLEASANT VIEW 1N/A         31  30  96  W8      29.85F                       
#PRESCOTT       N/A         36  34  92  CALM    29.79F                       
#WHITMAN COLLEGEN/A         35  34  96  SE3     29.85F                       
#WAITSBURG 6SSE N/A         34  32  92  E6      29.62F                       
#WALLA WALLA 5E N/A         35  33  92  CALM    N/A                          
#WHITMAN MISSIONN/A         31  28  88  SE3     29.83F                       
$$

WAZ030-201010-
BLUE MOUNTAINS...WASHINGTON
 
CITY            SKY/WX      TMP DP  RH  WIND    PRES   REMARKS
#DIXIE 5SE      N/A         30  29  96  W8      29.60F                       
$$

ORZ009-041-WAZ024-201010-
COLUMBIA RIVER GORGE

CITY            SKY/WX      TMP DP  RH  WIND    PRES   REMARKS
HOOD RIVER AP   PTCLDY      36  34  92  W3      29.80F                       
THE DALLES AP   CLEAR       36  32  85  S7      29.81F                       
#ARLINGTON AIRPON/A         36  33  89  SW12    29.78F WCI 28                
#CELILO DOT     N/A         39  30  70  CALM    N/A                          
#LYLE           N/A         40  36  85  CALM    29.83F                       
#MARYHILL       N/A         36  31  82  CALM    N/A                          
#MURDOCK        N/A         39  35  85  W5      29.77F                       
#RUFUS DOT      N/A         40  34  79  CALM    N/A                          
#SMITHVILLE     N/A         39  35  85  N6      29.79F                       

$$

ORZ510-201010-
NORTH CENTRAL OREGON

CITY            SKY/WX      TMP DP  RH  WIND    PRES   REMARKS
#ANTELOPE       N/A         30  28  92  E6      29.73F                       
#DUFUR          N/A         29  27  92  SE1     29.79F                       
#DUFUR 9E       N/A         33  28  82  NW1     29.86F                       
#GRASS VALLEY 1SN/A         30  28  92  CALM    29.91F                       
#KENT DOT       N/A         29  23  78  CALM    N/A                          
#SHANIKO 5WSW   N/A         28  27  96  CALM    N/A                          
#WAPANITIA AIRPON/A         35  29  78  NW1     29.85F                       
#WASCO DOT      N/A         32  32  100 CALM    N/A                          
#WASCO 5NE      N/A         34  32  92  SE3     29.79F                       
$$

ORZ511-201010-
CENTRAL OREGON

CITY            SKY/WX      TMP DP  RH  WIND    PRES   REMARKS
BEND AIRPORT    MOCLDY      30  27  88  W3      29.77F                       
PRINEVILLE AP   LGT SNOW    30  28  92  SW3     29.78F                       
REDMOND AIRPORT MOCLDY      31  28  88  CALM    29.78F                       
#ASHWOOD SCHOOL N/A         33  29  85  SW7     29.75F                       
#BEND 1SW       N/A         28  25  88  SE1     N/A                          
#BEND-AWBREY    N/A         29  26  88  S1      29.88F                       
#BEND-KIM LN    N/A         32  27  82  MISG    29.84F                       
#CULVER         N/A         30  27  88  SW12    29.55F WCI 20                
#CULVER 8W      N/A         28  24  85  CALM    29.81F                       
#LAKE BILLY CHINN/A         33  N/A N/A SW5     29.91F                       
#POWELL BUTTE   N/A         30  26  85  NW5     29.73F                       
#PRINEVILLE     N/A         31  28  88  SE1     29.98F                       
#PRINEVILLE 3N  N/A         31  29  92  CALM    29.87F                       
#WARM SPRINGS   N/A         33  29  85  SW12    29.69F WCI 24                

$$


ORZ509-201010-
EAST SLOPES OF OREGON CASCADES

CITY            SKY/WX      TMP DP  RH  WIND    PRES   REMARKS
SISTERS AWOS    N/A         30  28  92  CALM    29.76F                       
#BLUE BOX PASS  N/A         27  N/A N/A CALM    N/A                          
#CAMP SHERMAN   N/A         31  28  88  CALM    29.92F                       
#LA PINE 4NW    N/A         26  22  85  SE3     30.41S                       
#LAVA BUTTE DOT N/A         26  23  88  CALM    N/A                          
#SISTERS ODOT   N/A         31  28  88  CALM    N/A                          
#SISTERS 3N     N/A         30  27  88  NW3     29.72F                       
#TUMALO 3W      N/A         29  25  85  W5      29.75F                       
#WANOGA BUTTE D N/A         21  18  88  CALM    N/A                          

$$

ORZ044-201010-
LOWER COLUMBIA BASIN...OREGON

CITY            SKY/WX      TMP DP  RH  WIND    PRES   REMARKS
HERMISTON       LGT RAIN    36  32  85  SW8     29.77F                       
#BOARDMAN SCHOOLN/A         37  34  89  CALM    29.78F                       
#BOARDMAN 8SW   N/A         36  33  89  S6      29.79F                       
#ECHO 8SW       N/A         36  36  100 NW1     29.78F                       
#I-84 EX 198 DOTN/A         36  33  89  NW1     N/A                          
#IONE SCHOOL    N/A         38  25  59  CALM    29.80F                       
#UMATILLA       N/A         37  32  82  CALM    29.73F                       
$$

ORZ507-201010-
NORTHERN FOOTHILLS OF THE BLUES

CITY            SKY/WX      TMP DP  RH  WIND    PRES   REMARKS
PENDLETON AIRPT LGT RAIN    34  31  89  W14     29.74F WCI 25                
#ADAMS 3WNW     N/A         33  31  92  CALM    29.80F                       
#ATHENA         N/A         33  32  96  SE3     29.83F                       
#CAYUSE         N/A         36  32  85  SW7     29.80F                       
#HELIX SCHOOL   N/A         33  31  92  CALM    29.81F                       
#HELIX 3N       N/A         32  31  96  CALM    29.75F                       
#HOLDMAN 5SE    N/A         33  31  92  NW1     29.75F                       
#HOLDMAN 6E     N/A         32  31  96  NW1     29.60F                       
#M-FREEWATER 5SEN/A         36  32  85  SW7     29.76F                       
#PENDLETON DNTN N/A         37  33  85  SW7     29.78S                       
#PDT AQUATIC CTRN/A         37  33  85  CALM    29.76S                       
#PDT SUNRIDGE   N/A         37  34  89  CALM    29.78F                       
#PENDLETON 6SE  N/A         36  33  89  W8      29.76F                       
#TUTUILLA       N/A         34  31  89  W8      29.82F                       
#UMAPINE 2E     N/A         30  27  88  MISG    29.82F                       

$$

ORZ508-201010-
SOUTHERN FOOTHILLS OF THE BLUES

CITY            SKY/WX      TMP DP  RH  WIND    PRES   REMARKS
#AJAX           N/A         33  24  69  CALM    29.91F                       
#CONDON 5W      N/A         28  26  92  MISG    29.68F                       
#HEPPNER EOC    N/A         33  30  89  CALM    29.75F                       
#HEPPNER 4NE    N/A         31  29  92  S6      29.80F                       
#LEXINGTON 2SE  N/A         37  32  82  NW3     29.71F                       
#OLEX 4N        N/A         35  32  89  CALM    29.75F                       
#RUGGS 5NE      N/A         32  31  96  CALM    29.88S                       
#RUGGS 2SW      N/A         31  29  92  S6      29.83F                       

$$

ORZ502-503-201010-
BLUE MOUNTAINS

CITY            SKY/WX      TMP DP  RH  WIND    PRES   REMARKS
MEACHAM         LGT SNOW    29  25  85  VRB5    29.67F VSB 3/4               
#BATTLE MTN DOT N/A         25  24  96  CALM    N/A                          
#GRANITE        N/A         23  16  74  CALM    29.38F                       
#HARDMAN 10S    N/A         25  24  96  CALM    29.97F                       
#LADD CYN SMT   N/A         25  24  96  CALM    N/A                          
#LADD CREEK ODOTN/A         27  26  96  CALM    N/A                          
#N POWDER DOT   N/A         24  23  96  CALM    N/A                          
#SUMMERVILLE 5NWN/A         27  26  96  CALM    26.39F                       
#TOLLGATE       N/A         24  23  96  SW12    29.70F                       
#TROY SCHOOL    N/A         29  26  88  W5      29.68F                       
#UKIAH          N/A         28  26  92  CALM    29.76F                       
#WESTON 4E      N/A         29  28  96  W8      29.79F                       
$$

ORZ505-201010-
JOHN DAY BASIN

CITY            SKY/WX      TMP DP  RH  WIND    PRES   REMARKS
JOHN DAY        CLOUDY      28  27  96  CALM    29.72F                       
#MITCHELL 8NW   N/A         30  25  81  W8      29.87F                       
#MONUMENT HS    N/A         32  29  89  SW12    29.74F WCI 23                
$$

ORZ506-201010-
OCHOCO AND JOHN DAY HIGHLANDS

CITY            SKY/WX      TMP DP  RH  WIND    PRES   REMARKS
#HORSE RIDGE DO N/A         29  22  75  SE1     N/A                          
#PAULINA ODOT   N/A         28  26  92  SW12    N/A    WCI 18                
#PRAIRIE CITY   N/A         28  22  78  CALM    29.89F                       
#SENECA 9NW     N/A         23  22  96  W8      29.86F                       
$$

ORZ049-201010-
GRANDE RONDE VALLEY

CITY            SKY/WX      TMP DP  RH  WIND    PRES   REMARKS
LA GRANDE       LGT SNOW    28  27  96  SE6     29.73F FOG                   
#COVE SCHOOL    N/A         29  26  88  N1      29.75F                       
#COVE 6NW       N/A         29  27  92  CALM    29.83F                       
#ELGIN 3N       N/A         29  24  81  CALM    30.14                        
#ELGIN 1E       N/A         31  26  81  SW7     N/A                          
#IMBLER SCHOOL  N/A         28  27  96  SW5     29.70F                       
#ISLAND CITY 4N N/A         37  36  96  W5      29.92F                       
#LADD CYN DOT   N/A         29  27  92  CALM    N/A                          
#UNION 1S       N/A         30  27  88  CALM    29.84F                       
$$

ORZ050-201010-
WALLOWA COUNTY

CITY            SKY/WX      TMP DP  RH  WIND    PRES   REMARKS
#ENTERPRISE HS  N/A         26  23  88  CALM    29.72F                       
#IMNAHA SCHOOL  N/A         32  28  85  CALM    29.78F                       
#JOSEPH         N/A         25  16  68  CALM    29.89F                       
#JOSEPH 3N      N/A         23  20  88  CALM    29.73F                       
#JOSEPH 3W      N/A         22  20  92  CALM    29.52F                       
#LOSTINE        N/A         26  23  88  CALM    29.63F                       
#LOSTINE 3SE    N/A         26  23  88  W5      29.72F                       
#MT HOWARD 8000 N/A         12   9  87  W5      29.45F                       
#PROMISE 1S     N/A         25  23  92  MISG    29.88F                       
#WALLOWA SCHOOL N/A         25  22  88  CALM    29.70F                       



$$